Location: Beuvrequen
(50.8014°N, 1.6652°E)
Time: 21:19:36
(UTC+00:00)

Cosmos 1607 - Pass Details

Date: 16 October 2021
Orbit: 918 x 984 km, 65.0° (Epoch: 04 December)

Event Time Altitude Azimuth Distance (km) Brightness Sun altitude
Rises 17:37:01 0° 318° (NW) 3,673 7.6 -6.8°
Reaches altitude 10° 17:39:37 10° 321° (NW) 2,714 6.8 -7.2°
Maximum altitude 17:45:58 72° 46° (NE) 1,003 4.0 -8.2°
Drops below altitude 10° 17:52:10 10° 131° (SE) 2,653 5.9 -9.2°
Sets 17:54:41 0° 133° (SE) 3,585 6.5 -9.6°
